Regional Weather Roundup
Issued by NWS Wilmington, NC

Home | Current Version | Previous Version | Text Only | Print | Product List | Glossary On
Versions: 1 2 3 4 5 6 7 8 9 10 11 12 13 14 15 16 17 18 19 20 21 22 23 24 25 26 27 28 29 30 31 32 33 34 35 36 37 38 39 40 41 42 43 44 45 46 47 48 49 50
000
ASUS42 KILM 191413
RWRILM
RWRILM
REGIONAL HOURLY WEATHER ROUNDUP
NATIONAL WEATHER SERVICE WILMINGTON NC
900 AM EST MON FEB 19 2018

NOTE: "FAIR" INDICATES FEW OR NO CLOUDS BELOW 12,000 FEET WITH NO
SIGNIFICANT WEATHER AND/OR OBSTRUCTIONS TO VISIBILITY.

...............WFO WILMINGTON COUNTY WARNING AREA...............

......COASTAL NC AND SC COUNTIES......

CITY           SKY/WX    TMP DP  RH WIND       PRES   REMARKS
WILMINGTON     CLOUDY    56  52  86 N7        30.43F
N MYRTLE BEACH PTSUNNY   58  53  84 NE7       30.41S
MYRTLE BEACH   PTSUNNY   55  51  86 N6        30.43R

......INLAND NC AND SC COUNTIES.......

CITY           SKY/WX    TMP DP  RH WIND       PRES   REMARKS
LUMBERTON      CLOUDY    47  47 100 N6        30.45R FOG
ELIZABETHTOWN  NOT AVBL
WHITEVILLE     CLOUDY    51  49  95 N3        30.43S FOG
FLORENCE       FOG       49  48  97 NE7       30.44S VSB 1/2
DARLINGTON     CLOUDY    48  48 100 NE7       30.45S FOG
KINGSTREE      CLOUDY    50  50 100 CALM      30.43R FOG
HARTSVILLE     FOG       46  46 100 NE6       30.44S VSB 3/4
BENNETTSVILLE  CLOUDY    50  50 100 NE5       30.45S FOG
CONWAY         CLOUDY    52  52 100 N5        30.43S FOG
GEORGETOWN     LGT RAIN  54  54 100 CALM      30.42S
MARION         CLOUDY    48  46  93 N3        30.44S FOG

....................REST OF NORTH CAROLINA......................

.........EASTERN NC.........

CITY           SKY/WX    TMP DP  RH WIND       PRES   REMARKS
CAPE HATTERAS  CLOUDY    60  55  83 SE13      30.46S
JACKSONVILLE   CLOUDY    53  49  86 NE3       30.45S
MOREHEAD CITY  CLOUDY    63  57  81 SE7       30.44R
KENANSVILLE    CLOUDY    50  45  81 CALM      30.45S
NEW BERN       CLOUDY    52  48  86 NE3       30.47R
ELIZABETH CITY LGT RAIN  49  49 100 NE9       30.50R FOG

.........CENTRAL NC.........

CITY           SKY/WX    TMP DP  RH WIND       PRES   REMARKS
RALEIGH DURHAM DRIZZLE   41  41 100 NE5       30.48S FOG
ROCKY MOUNT    LGT RAIN  44  43  96 CALM      30.48R FOG
ROANOKE RAPIDS NOT AVBL
FAYETTEVILLE   CLOUDY    45  45 100 N8        30.46R FOG
HOFFMAN        CLOUDY    45  45  97 NE5       30.45F FOG

.........WESTERN NC.........

CITY           SKY/WX    TMP DP  RH WIND       PRES   REMARKS
CHARLOTTE      CLOUDY    51  49  92 NE6       30.43R
GREENSBORO     LGT RAIN  45  45 100 E6        30.43F FOG
HICKORY        NOT AVBL
BOONE          NOT AVBL
ASHEVILLE      NOT AVBL

.....................REST OF SOUTH CAROLINA.....................

.........EASTERN SC.........

CITY           SKY/WX    TMP DP  RH WIND       PRES   REMARKS
CHARLESTON     CLOUDY    60  57  89 NE7       30.40R FOG
BEAUFORT MCAS  FOG       61  61 100 NE3       30.39S VSB 1
HILTON HEAD    FOG       61  59  94 N6        30.40R VSB 1/4

.........CENTRAL SC.........

CITY           SKY/WX    TMP DP  RH WIND       PRES   REMARKS
COLUMBIA       CLOUDY    56  53  90 E8        30.41R
ORANGEBURG     CLOUDY    56  52  86 NE5       30.41R
SUMTER SHAW    FOG       52  50  93 NE8       30.41R VSB 1

.........WESTERN SC.........

CITY           SKY/WX    TMP DP  RH WIND       PRES   REMARKS
GREENVILLE     NOT AVBL
ROCK HILL      CLOUDY    50  49  96 VRB3      30.43R
ANDERSON       CLOUDY    53  53 100 NE7       30.40R FOG
CLEMSON        NOT AVBL
GREENWOOD      CLOUDY    52  52 100 E3        30.42R FOG


...................COASTAL AND OFFSHORE REPORTS..................

................LOCAL PIERS AND NC RESERVE................


STATION/POSITION TIME  SKY/WX   TEMP    WIND        PRES    VSBY
                                AIR SEA DIR/SP/G
                 (UTC)          (F)     (DEG/KT/KT) (MB)    (MI)
JOHNY MRCER PIER 1342            56 55  340/  6/ 10 1030.5R
NC RESRV MASNBRO NOT AVBL
OCEAN CREST PIER NOT AVBL
SPRINGMAID  PIER 1342                               1033.0R


................COASTAL AND OFFSHORE BUOYS................


STATION/POSITION TIME  SKY/WX   TEMP    WIND        PRES    VSBY
                                AIR SEA DIR/SP/G
                 (UTC)          (F)     (DEG/KT/KT) (MB)    (MI)
DIMNDSHOAL 41025 1400            66 72  130/ 17/ 21 1031.9
CAPE LOOKOUT     1400                   130/ 11/ 12 1031.0R
ONSLOW BAY 41036 NOT AVBL
ONSLOW BAY 41064 1308            68 65  150/ 12/ 16 1029.7R
ONSLOW BAY 41159 1400               65                N/A
WVE H/P(F/S)=  5/ 5 SWL H/P/D(F/S/D)=  2/120/11

MASNBO INL 41110 1359               53                N/A
WVE H/P(F/S)=  4/ 5

WILM HARBR 41108 1400               55                N/A
WVE H/P(F/S)=  3/ 5

27SE WRITB 41037 1308            69 68  150/ 16/ 23 1029.8R
FRYING PAN 41013 1400            70 67  150/ 10/ 12 1029.8
SUNST NRSH 41024 1308            55 54   30/  6/  6 1029.5R
CAPRS NRSH 41029 1308            52 56   30/ 10/ 14 1028.7R
EDISTO     41004 1400            70 67  190/ 14/ 19 1028.8


..........OFFSHORE BUOYS BEYOND 100 NM OFFSHORE...........
.....IN A TRIANGLE---HAT TO BERMUDA TO BAHAMAS TO HAT.....


STATION/POSITION TIME  SKY/WX   TEMP    WIND        PRES    VSBY
                                AIR SEA DIR/SP/G
                 (UTC)          (F)     (DEG/KT/KT) (MB)    (MI)
150E HAT   41001 NOT AVBL
W BERMUDA  41048 1400            66 69   70/ 16/ 17 1032.5
ATLANTIC S 41049 1350            73 75   30/ 12/ 16 1029.4R
WVE H/P(F/S)=  4/ 9 SWL H/P/D(F/S/D)=  3/340/ 9

E BAHAMAS  41046 1400            76 78   70/ 17/ 21 1026.6
NE BAHAMAS 41047 1400                    90/ 14/ 17 1029.2
120E CANVRL41010 NOT AVBL

END



USA.gov is the U.S. government's official web portal to all federal, state and local government web resources and services.